Retour au catalogue

OPS 3674

VELA 4

ActifMilitaireHEO
NORAD 837·PAYLOAD·🇺🇸 United States

Lancé Jul 17, 1964 depuis Cape Canaveral Space Force Station

Loading…

Prochains Passages (prochaines 24 heures)

TLE

FraisSource: Space-Track

Époque: Sep 8, 2026, 23:29 UTC

1   837U 64040B   26251.97856733 -.00000379  00000-0  00000+0 0  9995
2   837  48.4640 118.3473 6482601 256.8326   0.5778  0.24005192 54922

Suivez OPS 3674 en temps réel avec AllMySat

Download on the App Store